Flag for Vietnam Weather past 2 weeks in Ho Chi Minh, Vietnam

Now
82 °F

Light rain. Passing clouds.


Feels Like: 89 °F
Forecast: 78 / 87 °F
Wind: 10 mph from Southwest

Location: Ho Chi Minh

Current Time: Jul 6, 2015 at 9:25:49 PM

Latest Report: Jul 6, 2015 at 9:00 PM


Visibility: N/A

Pressure: 29.68 "Hg

Humidity: 79%

Dew point: 75 °F

Location of Ho Chi MinhLocation

Historic Weather in Ho Chi Minh — Graph

°F

Ho Chi Minh temperature yesterday

Maximum temperature yesterday: 93 °F (at 1:30 PM)
Minimum temperature yesterday: 75 °F (at 5:30 PM)
Average temperature yesterday: 84 °F

Past Weeks' High & Low Weather Summary

 TemperatureHumidityPressure
High95 °F (Jun 30, 3:00 PM)94% (Jun 22, 6:30 AM)29.95 "Hg (Jun 22, 6:30 AM)
Low75 °F (Jun 24, 2:00 AM)47% (Jun 28, 4:00 PM)29.59 "Hg (Jul 5, 3:30 PM)
Average83 °F76%29.78 "Hg
* Reported Jun 21 8:00 PM — Jul 6 8:30 PM, Ho Chi Minh, Weather by CustomWeather, © 2015

Note: Actual official high and low records may vary slightly from our data, if they occured in-between our weather recording intervals... More about our weather records

Advertising

Ho Chi Minh weather history for previous 24 hours

 ConditionsComfort  
Time TempWeatherWind HumidityBarometerVisibility
8:30 PM
Mon, Jul 6
82 °FLight rain. Passing clouds.8 mph79%29.68 "Hg5 mi
8:00 PM82 °FLight rain. Passing clouds.10 mph74%29.68 "Hg5 mi
7:30 PM84 °FPassing clouds.10 mph70%29.68 "HgN/A
7:00 PM84 °FPassing clouds.15 mph74%29.68 "HgN/A
6:30 PM84 °FPassing clouds.13 mph74%29.65 "HgN/A
6:00 PM86 °FScattered clouds.14 mph70%29.65 "HgN/A
5:30 PM88 °FScattered clouds.10 mph66%29.65 "HgN/A
5:00 PM88 °FPartly sunny.10 mph66%29.65 "HgN/A
4:30 PM90 °FScattered clouds.9 mph63%29.62 "HgN/A
4:00 PM90 °FScattered clouds.13 mph63%29.62 "HgN/A
3:30 PM90 °FScattered clouds.13 mph63%29.59 "HgN/A
3:00 PM90 °FPartly sunny.17 mph59%29.62 "HgN/A
2:30 PM90 °FPartly sunny.16 mph63%29.65 "HgN/A
2:00 PM91 °FPartly sunny.14 mph59%29.65 "HgN/A
1:30 PM88 °FPartly sunny.16 mph66%29.65 "HgN/A
1:00 PM90 °FPartly sunny.17 mph63%29.68 "HgN/A
12:30 PM90 °FScattered clouds.15 mph63%29.68 "HgN/A
12:00 PM88 °FScattered clouds.15 mph62%29.71 "HgN/A
11:30 AM88 °FPartly sunny.14 mph66%29.71 "HgN/A
11:00 AM88 °FScattered clouds.13 mph70%29.71 "HgN/A
10:30 AM88 °FScattered clouds.9 mph70%29.71 "HgN/A
10:00 AM86 °FPartly sunny.10 mph70%29.74 "HgN/A
9:30 AM86 °FPartly sunny.14 mph75%29.74 "HgN/A
9:00 AM86 °FScattered clouds.14 mph75%29.74 "HgN/A
8:30 AM84 °FScattered clouds.13 mph79%29.77 "HgN/A
8:00 AM84 °FScattered clouds.12 mph79%29.74 "HgN/A
7:30 AM82 °FScattered clouds.9 mph84%29.74 "Hg4 mi
7:00 AM82 °FScattered clouds.9 mph84%29.74 "Hg4 mi
6:00 AM79 °FPassing clouds.2 mph89%29.80 "Hg5 mi
5:30 AM79 °FPassing clouds.3 mph89%29.71 "HgN/A
5:00 AM79 °FPassing clouds.5 mph89%29.71 "HgN/A
4:30 AM79 °FPassing clouds.6 mph89%29.68 "HgN/A
4:00 AM79 °FPassing clouds.7 mph89%29.68 "HgN/A
3:30 AM79 °FPassing clouds.8 mph89%29.68 "HgN/A
3:00 AM79 °FPassing clouds.7 mph89%29.68 "HgN/A
2:30 AM79 °FPassing clouds.8 mph89%29.68 "HgN/A
2:00 AM81 °FPassing clouds.8 mph84%29.71 "HgN/A
1:30 AM81 °FPassing clouds.9 mph84%29.71 "HgN/A
1:00 AM81 °FPassing clouds.6 mph84%29.71 "HgN/A
12:30 AM81 °FPassing clouds.7 mph84%29.71 "HgN/A
12:00 AM81 °FPassing clouds.6 mph84%29.71 "HgN/A
11:30 PM
Sun, Jul 5
81 °FPassing clouds.6 mph89%29.74 "HgN/A
11:00 PM81 °FPassing clouds.7 mph89%29.74 "HgN/A
10:30 PM81 °FPassing clouds.8 mph84%29.74 "HgN/A
10:00 PM81 °FPassing clouds.6 mph84%29.74 "HgN/A
9:30 PM81 °FPassing clouds.6 mph84%29.74 "HgN/A
9:00 PM81 °FPassing clouds.7 mph84%29.71 "HgN/A
Weather by CustomWeather, © 2015

See weather overviewHow to use our weather pages